Location: Newark
(50.4375°N, 16.6489°E)
Time: 14:59:27
(UTC+00:00)

N. Korean satellite - Visible Passes

Search period start: 19 September 2019 00:00
Search period end: 29 September 2019 00:00
Orbit: 455 x 509 km, 97.2° (Epoch: 18 September)

Date Brightness Start Highest point End Pass type
(mag) Time Alt. Az. Time Alt. Az. Time Alt. Az.
19 Sep 10.0 03:51:22 10° ENE 03:53:03 13° E 03:54:44 10° ESE visible
23 Sep 10.3 03:44:30 10° ENE 03:45:27 11° E 03:46:24 10° ESE visible
26 Sep 9.8 04:00:59 10° NE 04:03:19 17° E 04:05:40 10° SE visible
